[Iaude] MPEC A106: 2024 AN2 [a=1.60,e=0.40,i=11.4,H=21.6,PHA]
    mpec at marsden.cfa.harvard.edu 
    mpec at marsden.cfa.harvard.edu
       
    Wed Jan 10 00:38:00 EST 2024
    
    
  
M.P.E.C. 2024-A106                             Issued 2024 January 10, 05:36 UT
     The Minor Planet Electronic Circulars contain information on unusual
         minor planets, routine data on comets and natural satellites,
         and occasional editorial announcements.  They are published
    on behalf of Division F of the International Astronomical Union by the
          Minor Planet Center, Smithsonian Astrophysical Observatory,
                          Cambridge, MA 02138, U.S.A.
			  
             Prepared using the Tamkin Foundation Computer Network
                              MPC at CFA.HARVARD.EDU
            URL https://www.minorplanetcenter.net/    ISSN 1523-6714
                                    2024 AN2                                    
Observations:
     K24A02N* C2024 01 04.24797502 25 31.512-11 00 26.83         22.14wXEA106F51
     K24A02N  C2024 01 04.26058802 25 31.334-11 00 10.95         22.12wXEA106F51
     K24A02N  C2024 01 04.27488702 25 31.133-10 59 52.85         22.23wXEA106F51
     K24A02N  C2024 01 04.28751902 25 30.960-10 59 36.84         22.47wXEA106F51
     K24A02N  C2024 01 04.36958402 25 29.878-10 57 52.14         22.10GVEA106F51
     K24A02N  C2024 01 04.37040002 25 29.867-10 57 50.87         22.26GVEA106F51
     K24A02N KC2024 01 09.19468202 25 40.145-09 10 06.96         21.87GVEA106V06
     K24A02N KC2024 01 09.20418302 25 40.206-09 09 53.14         21.66GVEA106V06
     K24A02N KC2024 01 09.21056002 25 40.249-09 09 44.35         22.37GVEA106V06
     K24A02N KC2024 01 09.21896502 25 40.325-09 09 32.11         22.76GVEA106V06
     K24A02N KC2024 01 10.15524 02 25 51.80 -08 47 16.2          21.4 RVEA106691
     K24A02N KC2024 01 10.17535 02 25 51.94 -08 46 46.9          21.4 RVEA106691
     K24A02N KC2024 01 10.19545 02 25 52.12 -08 46 19.2          21.5 RVEA106691
Observer details:
691 Steward Observatory, Kitt Peak-Spacewatch.  Observer J. V. Scotti.  0.9-m
    f/3 reflector + CCD.
F51 Pan-STARRS 1, Haleakala.  Observers J. Herman, T. Lowe, P. Minguez, A.
    Schultz, I. Smith.  Measurers K. Chambers, T. de Boer, J. Fairlamb, H.
    Gao, M. Huber, C.-C. Lin, E. Magnier, Y. Ramanjooloo, R. Wainscoat, R.
    Weryk.  1.8-m Ritchey-Chretien + CCD.
V06 Catalina Sky Survey-Kuiper.  Observer K. W. Wierzchos.  Measurers E. C.
    Beshore, D. Fay, J. B. Fazekas, D. C. Fuls, A. R. Gibbs, A. D. Grauer, H.
    Groeller, J. K. Hogan, R. A. Kowalski, S. M. Larson, G. J. Leonard, D.
    Rankin, R. L. Seaman, F. C. Shelly, K. W. Wierzchos.  1.55-m reflector +
    1K CCD.
Orbital elements:
2024 AN2                                            PHA, Earth MOID = 0.0065 AU
Epoch 2023 Sept. 13.0 TT = JDT 2460200.5                MPC                     
M 272.00202              (2000.0)            P               Q                  
n   0.48648768     Peri.   17.58827     -0.89001028     -0.43463323             
a   1.6011112      Node   135.81305     +0.39095783     -0.88294970             
e   0.3960242      Incl.   11.39871     +0.23459259     -0.17746488             
P   2.03           H   21.61          G   0.15           U   9                  
Residuals in seconds of arc
240104 F51  0.1+  0.0     240104 F51  0.3-  0.2+    240110 691  0.2-  0.3+
240104 F51  0.1+  0.0     240109 V06  0.4-  0.2-    240110 691  0.2-  0.6+
240104 F51  0.1+  0.0     240109 V06  0.1-  0.2+    240110 691  0.2+  0.9-
240104 F51  0.1+  0.1-    240109 V06  0.0   0.1-
240104 F51  0.2-  0.0     240109 V06  0.6+  0.1+
Ephemeris:
2024 AN2                 a,e,i = 1.60, 0.40, 11                  q = 0.9670
Date    TT    R. A. (2000) Decl.     Delta      r    Elong.  Phase     V
2023 12 11    02 45 10.6 -16 30 41   0.4870  1.3364   127.1    36.0    22.1
...
2023 12 26    02 29 02.4 -13 51 26   0.4742  1.2491   113.2    46.3    22.2
...
2024 01 03    02 25 42.5 -11 26 10   0.4686  1.2038   106.6    51.5    22.3
...
2024 01 09    02 25 38.8 -09 14 30   0.4635  1.1708   102.0    55.3    22.3
2024 01 10    02 25 50.1 -08 50 49   0.4626  1.1654   101.2    55.9    22.3
2024 01 11    02 26 04.7 -08 26 38   0.4616  1.1601   100.5    56.5    22.3
...
2024 01 17    02 28 40.6 -05 51 48   0.4547  1.1287    96.4    60.0    22.3
...
2024 01 25    02 34 58.5 -02 00 22   0.4425  1.0896    91.5    64.6    22.3
...
2024 02 09    02 54 33.8 +06 32 31   0.4104  1.0272    83.9    72.7    22.3
A. U. Tomatic                (C) Copyright 2024 MPC           M.P.E.C. 2024-A106
    
    
More information about the Iaude
mailing list